Hazard, Kentucky, United States (41701)
Lat: 37.25N, Lon: 83.19W
Wx Zone: KYZ115
Local Info
Past Weather Observations for Tuesday, July 28, 2015

NOTE: This archive is for the closest National Weather Service station to Hazard. Information may differ from the station used for current weather conditions.

Click here for Long-term Archive

Time Weather Temperature Dewpoint Humidity Pressure Winds Precip Visibility
23:53
Clear
Fog And Mist
73°F / 23°C 72°F / 22°C 94% 30.04 in
(1017 mb)
Calm - 4SM
22:53
Clear
Fog And Mist
75°F / 24°C 73°F / 23°C 94% 30.04 in
(1017 mb)
SSW 3.5 mph
(SSW 6 kph)
- 3SM
22:45
Clear
Fog And Mist
73°F / 23°C 73°F / 23°C 100% 30.04 in
(1017 mb)
Calm - 2 1/2SM
22:34
Clear
Fog And Mist
73°F / 23°C 72°F / 22°C 94% 30.04 in
(1017 mb)
Calm - 1 3/4SM
21:53
Partly Cloudy
Fog And Mist
75°F / 24°C 73°F / 23°C 94% 30.04 in
(1017 mb)
Calm - 5SM
21:37
Partly Cloudy
Fog And Mist
75°F / 24°C 73°F / 23°C 94% 30.01 in
(1016 mb)
Calm - 3SM
21:32
Clear
Fog And Mist
75°F / 24°C 73°F / 23°C 94% 30.04 in
(1017 mb)
Calm - 2 1/2SM
20:53
Clear
Fog And Mist
77°F / 25°C 73°F / 23°C 89% 30.01 in
(1016 mb)
Calm - 6SM
19:53
Clear
79°F / 26°C 73°F / 23°C 84% 30.01 in
(1016 mb)
Calm - 8SM
18:53
Clear
81°F / 27°C 73°F / 23°C 79% 30.01 in
(1016 mb)
Calm - 10SM
17:53
Clear
84°F / 29°C 73°F / 23°C 70% 29.98 in
(1015 mb)
Calm - 10SM
16:53
Partly Cloudy
82°F / 28°C 72°F / 22°C 70% 30.01 in
(1016 mb)
NW 6.9 mph
(NW 11 kph)
- 10SM
15:53
Clear
86°F / 30°C 72°F / 22°C 62% 30.01 in
(1016 mb)
Calm - 10SM
14:53
Overcast
84°F / 29°C 73°F / 23°C 70% 30.01 in
(1016 mb)
Variable 4.6 mph
(Variable 7 kph)
- 10SM
13:53
Overcast
84°F / 29°C 72°F / 22°C 66% 30.04 in
(1017 mb)
SSW 3.5 mph
(SSW 6 kph)
- 10SM
12:53
Partly Cloudy
88°F / 31°C 72°F / 22°C 59% 30.04 in
(1017 mb)
Calm - 10SM
11:53
Partly Cloudy
84°F / 29°C 72°F / 22°C 66% 30.04 in
(1017 mb)
Calm - 10SM
11:17
Partly Cloudy
84°F / 29°C 72°F / 22°C 66% 30.04 in
(1017 mb)
Calm - 10SM
10:53
Mostly Cloudy
82°F / 28°C 73°F / 23°C 74% 30.06 in
(1018 mb)
Variable 3.5 mph
(Variable 6 kph)
- 10SM
10:16
Mostly Cloudy
84°F / 29°C 73°F / 23°C 70% 30.06 in
(1018 mb)
Calm - 10SM
09:53
Partly Cloudy
82°F / 28°C 73°F / 23°C 74% 30.04 in
(1017 mb)
Calm - 10SM
08:53
Clear
79°F / 26°C 73°F / 23°C 84% 30.06 in
(1018 mb)
Calm - 10SM
08:06
Partly Cloudy
75°F / 24°C 73°F / 23°C 94% 30.06 in
(1018 mb)
Calm - 7SM
07:53
Mostly Cloudy
Fog And Mist
73°F / 23°C 72°F / 22°C 94% 30.06 in
(1018 mb)
Calm - 3SM
07:46
Mostly Cloudy
Fog And Mist
73°F / 23°C 72°F / 22°C 94% 30.04 in
(1017 mb)
Calm - 2 1/2SM
06:53
Obscured
Fog
72°F / 22°C 72°F / 22°C 100% 30.04 in
(1017 mb)
Calm - M1/4SM
05:53
Obscured
Fog
72°F / 22°C 70°F / 21°C 94% 30.04 in
(1017 mb)
Calm - M1/4SM
05:03
Overcast
Fog
72°F / 22°C 70°F / 21°C 94% 30.04 in
(1017 mb)
Calm - 1/4SM
04:53
Overcast
Fog And Mist
72°F / 22°C 70°F / 21°C 94% 30.04 in
(1017 mb)
Calm - 1 1/4SM
04:30
Obscured
Fog
72°F / 22°C 70°F / 21°C 94% 30.04 in
(1017 mb)
Calm - 1/2SM
04:19
Mostly Cloudy
Fog And Mist
72°F / 22°C 70°F / 21°C 94% 30.04 in
(1017 mb)
Calm - 1 1/2SM
04:16
Mostly Cloudy
Fog And Mist
72°F / 22°C 70°F / 21°C 94% 30.04 in
(1017 mb)
Calm - 2 1/2SM
04:10
Partly Cloudy
Fog And Mist
72°F / 22°C 70°F / 21°C 94% 30.01 in
(1016 mb)
Calm - 1 1/2SM
03:57
Obscured
Fog And Mist
72°F / 22°C 70°F / 21°C 94% 30.01 in
(1016 mb)
Calm - 3/4SM
03:53
Partly Cloudy
Fog And Mist
72°F / 22°C 70°F / 21°C 94% 30.01 in
(1016 mb)
Calm - 1 1/2SM
02:53
Clear
Fog And Mist
73°F / 23°C 72°F / 22°C 94% 30.01 in
(1016 mb)
Calm - 5SM
02:33
Clear
Fog And Mist
73°F / 23°C 72°F / 22°C 94% 30.01 in
(1016 mb)
S 3.5 mph
(S 6 kph)
- 2 1/2SM
01:59
Partly Cloudy
Fog And Mist
73°F / 23°C 72°F / 22°C 94% 30.04 in
(1017 mb)
Calm - 3SM
01:53
Mostly Cloudy
Fog And Mist
72°F / 22°C 72°F / 22°C 100% 30.04 in
(1017 mb)
Calm - 1 3/4SM
01:40
Mostly Cloudy
Fog And Mist
73°F / 23°C 72°F / 22°C 94% 30.04 in
(1017 mb)
Calm - 1 3/4SM
01:35
Partly Cloudy
Fog And Mist
73°F / 23°C 72°F / 22°C 94% 30.04 in
(1017 mb)
S 3.5 mph
(S 6 kph)
- 2SM
01:04
Partly Cloudy
Fog And Mist
73°F / 23°C 72°F / 22°C 94% 30.04 in
(1017 mb)
Calm - 4SM
00:53
Mostly Cloudy
Fog And Mist
73°F / 23°C 72°F / 22°C 94% 30.04 in
(1017 mb)
Calm - 4SM
00:38
Mostly Cloudy
Fog And Mist
73°F / 23°C 72°F / 22°C 94% 30.04 in
(1017 mb)
Calm - 4SM
00:00
Partly Cloudy
Fog And Mist
73°F / 23°C 72°F / 22°C 94% 30.06 in
(1018 mb)
Variable 3.5 mph
(Variable 6 kph)
- 5SM
Time Weather Temperature Dewpoint Humidity Pressure Winds Precip Visibility


Weather for websites

WeatherForYou.com, LLC is not responsible for any damages or problems caused by this service. Current weather conditions are obtained from the closest station including government and personal stations which may have varying degrees of accuracy. Weather forecasts are derived from the NOAA NDFD. Like all things, this site belongs to Jesus Christ... He just trusts us to maintain it. If you have any questions or comments email webmaster@weatherforyou.com

Copyright © 2015, WeatherForYou.com LLC. All rights reserved.